Temp
1 0 0 0 0 -0 1 0 -1 1 1 0 -1 -6 -3 -0 0 0 -0 -0 -1 -1 -1 -2 -2 -3 -3 -1 -2 -6 -8 -11 -8 -6 -9 -11 -11 -8 -7 -7 -8 -11 -13 -12
1 0 -0 -1 -1 -1 -1 -1 -0 0 1 -2 -3 -1 1 0 -0 -1 -1 -1 -1 -1 -2 -4 -2 -1 -1 -1 -3 -6 -7 -10 -11 -8 -10 -10 -9 -10 -10 -11 -14 -16 -11 -12
-1 -1 -2 -1 -1 -1 -1 -1 -3 0 -0 0 -1 -3 -2 -1 -0 -1 -1 -1 -1 -2 -3 -3 -4 -2 -2 -1 -2 -2 -3 -12 -11 -10 -10 -11 -8 -11 -10 -9 -11 -14 -15 -16
-1 -2 -2 -2 -2 -2 -2 -1 -2 -2 -4 -2 -4 -3 -2 -2 -2 -1 -1 -2 -3 -3 -4 -4 -4 -3 -2 -2 -2 -1 -4 -8 -9 -7 -6 -9 -7 -8 -10 -12 -15 -11 -17 -18
-2 -2 -2 -3 -3 -3 -2 -2 -2 -3 -3 -2 -3 -4 -3 -3 -2 -2 -3 -4 -3 -4 -5 -5 -6 -5 -4 -4 -4 -5 -5 -9 -8 -7 -6 -5 -7 -8 -13 -16 -19 -18 -24 -19
-2 -3 -3 -4 -3 -4 -4 -4 -4 -4 -3 -4 -5 -5 -4 -3 -2 -2 -2 -3 -4 -4 -4 -3 -3 -3 -3 -4 -5 -5 -5 -8 -9 -8 -7 -6 -7 -10 -13 -16 -19 -18 -17 -17
-3 -4 -4 -4 -4 -4 -5 -5 -4 -5 -4 -5 -3 -3 -4 -4 -4 -4 -3 -3 -4 -4 -4 -5 -4 -4 -4 -5 -4 -5 -7 -7 -7 -7 -8 -8 -12 -10 -10 -14 -18 -20 -19 -21
-4 -4 -4 -5 -5 -5 -5 -5 -5 -5 -7 -4 -4 -4 -5 -5 -4 -4 -4 -4 -4 -5 -6 -6 -6 -7 -6 -6 -6 -6 -5 -7 -8 -8 -10 -11 -12 -14 -12 -12 -16 -19 -18 -17
-4 -5 -5 -6 -6 -6 -5 -5 -6 -6 -5 -7 -5 -5 -5 -8 -9 -7 -4 -5 -6 -6 -6 -7 -10 -6 -5 -8 -10 -7 -7 -10 -8 -11 -7 -9 -13 -12 -13 -13 -15 -14 -15 -16
-5 -6 -6 -6 -6 -5 -5 -5 -6 -6 -5 -5 -6 -7 -9 -6 -6 -6 -6 -7 -6 -6 -7 -7 -9 -8 -7 -7 -7 -8 -8 -10 -9 -10 -8 -13 -15 -15 -13 -13 -15 -15 -15 -16
-6 -6 -6 -6 -6 -6 -6 -6 -6 -7 -6 -8 -8 -8 -8 -8 -9 -10 -8 -8 -8 -7 -9 -9 -10 -9 -9 -12 -14 -13 -13 -13 -16 -13 -14 -13 -16 -14 -13 -16 -15 -16 -16 -16
-7 -6 -6 -6 -6 -7 -7 -7 -7 -7 -8 -8 -9 -10 -10 -10 -11 -11 -10 -9 -8 -7 -7 -8 -7 -8 -10 -12 -14 -15 -14 -17 -17 -19 -18 -16 -16 -16 -16 -16 -16 -17 -17 -17
-7 -7 -6 -7 -7 -7 -7 -7 -7 -7 -9 -9 -10 -11 -11 -10 -10 -11 -11 -9 -9 -9 -9 -8 -10 -12 -12 -14 -15 -16 -16 -16 -17 -17 -16 -16 -16 -17 -17 -17 -17 -17 -17 -17
-7 -7 -7 -7 -7 -7 -7 -7 -8 -8 -9 -9 -12 -11 -11 -11 -11 -11 -10 -9 -9 -10 -11 -12 -14 -13 -14 -16 -18 -18 -19 -17 -19 -18 -17 -17 -17 -18 -18 -17 -17 -17 -18 -18
-8 -7 -8 -8 -8 -8 -8 -8 -8 -9 -10 -9 -11 -11 -12 -12 -11 -11 -10 -9 -10 -12 -14 -15 -15 -15 -16 -16 -19 -21 -18 -20 -20 -19 -18 -18 -18 -18 -18 -18 -18 -18 -18 -18
-8 -8 -8 -8 -8 -9 -9 -9 -9 -9 -10 -10 -11 -12 -12 -12 -12 -12 -11 -11 -13 -14 -14 -16 -16 -15 -15 -21 -21 -19 -18 -18 -18 -18 -18 -18 -18 -18 -18 -18 -18 -19 -19 -19
-9 -8 -8 -8 -8 -8 -9 -12 -11 -10 -10 -10 -11 -11 -12 -12 -12 -12 -13 -14 -15 -15 -15 -16 -17 -17 -17 -22 -22 -19 -19 -18 -18 -18 -18 -18 -18 -18 -18 -18 -19 -19 -19 -19
-9 -9 -9 -8 -9 -10 -11 -11 -10 -11 -11 -13 -16 -15 -13 -14 -13 -12 -13 -14 -14 -15 -15 -16 -17 -18 -19 -22 -19 -19 -19 -19 -19 -19 -18 -18 -18 -18 -19 -19 -19 -19 -19 -19
-9 -9 -9 -10 -10 -12 -13 -13 -12 -12 -13 -15 -16 -17 -16 -15 -14 -13 -12 -13 -15 -15 -16 -17 -17 -19 -22 -20 -19 -20 -19 -19 -19 -19 -19 -19 -19 -19 -19 -19 -19 -19 -19 -19
-10 -10 -10 -12 -13 -14 -13 -13 -13 -15 -16 -16 -17 -17 -17 -16 -15 -14 -13 -13 -16 -19 -17 -16 -19 -22 -19 -19 -19 -19 -19 -19 -19 -19 -20 -19 -19 -19 -19 -19 -19 -19 -19 -19
-9 -10 -12 -13 -13 -13 -14 -16 -17 -17 -19 -18 -18 -18 -18 -16 -16 -15 -15 -18 -16 -20 -17 -17 -19 -21 -20 -19 -19 -19 -19 -20 -19 -20 -20 -20 -20 -20 -20 -20 -20 -19 -20 -20
-10 -10 -12 -13 -14 -15 -19 -23 -18 -19 -20 -18 -18 -19 -18 -17 -16 -16 -16 -18 -19 -20 -16 -19 -21 -21 -20 -20 -20 -20 -20 -20 -20 -20 -20 -20 -20 -20 -20 -20 -20 -20 -20 -20
-11 -12 -15 -16 -18 -22 -24 -24 -24 -23 -19 -19 -20 -19 -18 -17 -17 -16 -19 -21 -21 -16 -21 -20 -21 -19 -20 -20 -20 -20 -20 -20 -20 -20 -21 -21 -21 -20 -20 -20 -20 -20 -20 -20
-14 -17 -23 -24 -24 -21 -21 -21 -20 -19 -19 -19 -19 -19 -18 -18 -18 -20 -24 -21 -21 -25 -23 -22 -20 -19 -20 -20 -20 -20 -20 -21 -21 -21 -21 -21 -21 -21 -21 -20 -20 -20 -20 -20
-17 -18 -22 -21 -19 -19 -19 -19 -19 -19 -19 -19 -19 -18 -19 -21 -24 -21 -23 -25 -26 -22 -23 -21 -19 -19 -20 -20 -20 -20 -21 -21 -21 -21 -21 -21 -21 -21 -20 -20 -20 -20 -20 -20
-18 -18 -20 -19 -19 -20 -19 -19 -20 -19 -19 -19 -19 -22 -27 -25 -26 -25 -25 -27 -23 -22 -19 -19 -19 -20 -20 -20 -20 -20 -21 -21 -21 -21 -21 -21 -21 -21 -20 -20 -20 -20 -20 -20
-18 -19 -19 -19 -20 -20 -19 -19 -19 -18 -19 -20 -20 -25 -25 -22 -27 -24 -24 -23 -20 -20 -20 -20 -20 -20 -20 -20 -20 -20 -21 -21 -21 -21 -21 -21 -20 -20 -20 -20 -20 -20 -20 -20
Height
1544 1542 1539 1538 1536 1534 1531 1529 1530 1529 1529 1531 1529 1533 1524 1524 1522 1523 1524 1524 1524 1522 1520 1520 1520 1519 1517 1518 1521 1531 1532 1547 1545 1538 1536 1536 1540 1538 1536 1538 1546 1556 1566 1558
1542 1540 1538 1536 1535 1533 1531 1530 1529 1528 1528 1531 1531 1526 1524 1523 1522 1522 1521 1522 1522 1521 1522 1526 1517 1514 1514 1515 1518 1525 1528 1546 1562 1543 1546 1538 1540 1540 1540 1545 1557 1574 1556 1555
1540 1538 1537 1535 1534 1533 1532 1531 1531 1528 1528 1526 1527 1529 1526 1525 1523 1522 1520 1520 1519 1519 1520 1520 1520 1515 1514 1514 1513 1515 1519 1539 1544 1550 1547 1540 1537 1543 1539 1538 1549 1560 1558 1555
1538 1537 1535 1534 1533 1532 1531 1531 1530 1528 1530 1525 1527 1529 1527 1524 1521 1519 1516 1516 1517 1517 1519 1515 1516 1514 1512 1513 1513 1511 1514 1528 1529 1524 1524 1530 1525 1529 1536 1543 1551 1544 1557 1559
1536 1535 1534 1533 1532 1530 1530 1531 1530 1529 1526 1524 1525 1526 1524 1521 1518 1517 1515 1514 1513 1514 1515 1514 1516 1513 1512 1512 1512 1515 1513 1523 1522 1521 1517 1516 1520 1525 1535 1547 1555 1553 1567 1554
1533 1532 1532 1530 1528 1527 1527 1528 1527 1526 1524 1522 1525 1522 1519 1516 1514 1510 1508 1509 1509 1508 1506 1504 1505 1504 1504 1504 1507 1507 1510 1518 1522 1520 1515 1513 1519 1526 1532 1540 1546 1546 1552 1544
1530 1530 1529 1528 1526 1526 1525 1525 1525 1523 1520 1521 1519 1515 1515 1513 1512 1509 1505 1505 1505 1502 1503 1503 1499 1498 1498 1498 1497 1501 1507 1508 1512 1512 1517 1519 1531 1524 1524 1533 1541 1542 1542 1540
1528 1527 1526 1525 1525 1524 1523 1522 1522 1521 1518 1515 1515 1512 1510 1510 1507 1504 1501 1500 1500 1499 1501 1501 1501 1499 1497 1490 1492 1495 1497 1505 1509 1514 1523 1528 1531 1532 1530 1531 1545 1540 1540 1538
1524 1524 1523 1522 1521 1519 1518 1518 1519 1520 1516 1511 1510 1509 1507 1507 1506 1503 1500 1500 1500 1500 1498 1501 1510 1496 1488 1497 1498 1492 1497 1501 1508 1521 1506 1512 1533 1532 1532 1532 1543 1539 1538 1537
1521 1521 1520 1519 1517 1516 1514 1516 1516 1516 1511 1508 1507 1506 1507 1505 1505 1504 1502 1501 1500 1500 1499 1500 1503 1497 1490 1488 1493 1497 1500 1506 1507 1512 1503 1532 1538 1535 1533 1537 1546 1539 1538 1537
1518 1517 1517 1515 1513 1512 1513 1513 1512 1513 1511 1508 1507 1505 1505 1504 1505 1506 1503 1502 1498 1497 1501 1500 1499 1494 1494 1507 1521 1520 1519 1524 1534 1525 1531 1532 1537 1535 1534 1543 1540 1539 1538 1537
1515 1514 1512 1510 1510 1510 1510 1510 1509 1509 1510 1509 1508 1506 1506 1507 1507 1506 1503 1502 1500 1496 1491 1493 1493 1495 1500 1509 1522 1528 1528 1539 1541 1548 1548 1542 1541 1540 1541 1541 1540 1540 1539 1537
1512 1510 1509 1508 1509 1507 1508 1507 1506 1505 1506 1509 1509 1508 1508 1507 1504 1504 1505 1501 1498 1496 1495 1495 1500 1510 1512 1519 1529 1534 1538 1538 1541 1543 1545 1543 1543 1543 1542 1542 1541 1540 1538 1536
1507 1507 1507 1507 1505 1505 1506 1506 1504 1504 1505 1507 1512 1510 1507 1507 1503 1501 1499 1498 1498 1497 1496 1501 1510 1515 1519 1531 1538 1541 1547 1543 1546 1546 1545 1545 1544 1544 1544 1543 1541 1539 1537 1535
1506 1505 1505 1504 1503 1503 1504 1503 1503 1503 1507 1507 1510 1510 1510 1508 1504 1500 1496 1495 1497 1498 1502 1509 1519 1523 1526 1534 1540 1552 1550 1551 1552 1551 1549 1547 1546 1545 1544 1542 1540 1539 1536 1534
1503 1503 1502 1502 1502 1502 1502 1503 1505 1505 1504 1506 1509 1513 1511 1510 1507 1503 1499 1498 1499 1502 1510 1520 1524 1526 1529 1544 1554 1556 1554 1552 1551 1551 1548 1547 1546 1545 1543 1542 1540 1538 1536 1533
1502 1501 1502 1502 1503 1503 1504 1511 1508 1504 1504 1505 1509 1512 1514 1511 1509 1508 1506 1505 1506 1509 1517 1527 1531 1532 1533 1547 1560 1557 1554 1553 1551 1550 1548 1547 1546 1545 1543 1541 1539 1537 1535 1532
1501 1502 1502 1502 1504 1505 1508 1509 1506 1504 1504 1508 1517 1521 1518 1515 1513 1511 1511 1511 1513 1519 1525 1532 1535 1539 1545 1559 1560 1558 1555 1553 1551 1550 1548 1547 1546 1544 1542 1540 1538 1535 1533 1531
1501 1502 1504 1506 1509 1511 1513 1513 1511 1507 1510 1519 1531 1534 1529 1523 1520 1517 1515 1516 1522 1528 1534 1538 1542 1553 1562 1563 1561 1558 1556 1555 1553 1551 1549 1546 1545 1543 1541 1539 1537 1534 1532 1529
1503 1505 1507 1511 1514 1514 1514 1515 1512 1514 1522 1531 1541 1540 1535 1532 1526 1522 1520 1522 1527 1539 1542 1542 1552 1566 1565 1564 1562 1559 1557 1555 1553 1550 1547 1545 1543 1541 1539 1537 1535 1533 1530 1528
1505 1508 1512 1516 1515 1516 1517 1523 1529 1535 1542 1547 1547 1544 1541 1536 1533 1530 1529 1531 1532 1547 1546 1547 1559 1569 1566 1564 1562 1560 1557 1555 1552 1550 1547 1545 1542 1539 1537 1534 1532 1530 1528 1525
1507 1510 1515 1517 1520 1523 1530 1546 1548 1551 1558 1554 1551 1548 1544 1540 1537 1536 1535 1538 1542 1553 1548 1554 1567 1569 1566 1564 1561 1558 1556 1553 1550 1548 1545 1542 1540 1537 1534 1531 1529 1527 1524 1522
1510 1513 1520 1529 1539 1548 1564 1573 1568 1565 1560 1558 1555 1551 1547 1544 1542 1540 1542 1551 1556 1550 1561 1568 1572 1569 1566 1563 1560 1557 1554 1551 1548 1545 1543 1540 1537 1534 1531 1527 1525 1523 1521 1519
1515 1527 1546 1554 1570 1572 1572 1571 1569 1565 1561 1558 1555 1552 1550 1549 1547 1549 1559 1557 1557 1575 1577 1577 1570 1567 1564 1561 1558 1555 1551 1548 1545 1542 1539 1536 1533 1530 1527 1525 1522 1519 1516 1514
1531 1544 1566 1573 1577 1574 1572 1569 1566 1563 1560 1558 1556 1555 1554 1554 1556 1559 1563 1573 1586 1577 1581 1573 1569 1566 1563 1559 1555 1552 1548 1545 1542 1539 1535 1532 1529 1526 1523 1521 1518 1516 1513 1511
1549 1565 1575 1578 1576 1574 1570 1567 1563 1561 1559 1558 1559 1559 1564 1569 1570 1576 1583 1590 1585 1580 1573 1570 1567 1563 1560 1557 1553 1549 1546 1542 1539 1535 1532 1529 1526 1523 1520 1517 1515 1512 1510 1507
1571 1582 1581 1581 1579 1577 1573 1569 1564 1562 1561 1561 1562 1572 1579 1574 1583 1586 1582 1585 1580 1575 1571 1568 1565 1561 1557 1554 1550 1547 1543 1539 1536 1532 1529 1526 1523 1520 1517 1514 1511 1508 1506 1503
Wind_Speed
9 10 12 12 15 19 18 6 3 3 5 2 3 2 3 1 2 3 3 1 3 4 3 4 4 6 7 15 15 7 6 5 3 7 4 4 3 4 4 2 3 2 3 5
8 10 9 11 14 17 19 10 4 3 1 1 3 4 3 2 3 3 3 4 5 1 2 2 3 1 5 19 10 9 6 1 1 6 6 5 2 3 3 4 3 5 3 5
7 7 9 11 13 13 13 5 3 3 5 4 1 5 5 3 3 4 5 3 3 2 4 4 4 3 5 18 16 17 15 4 7 7 8 4 3 3 1 4 3 3 6 4
5 5 9 11 12 11 8 1 2 0 3 3 4 2 4 9 8 9 7 2 7 7 5 4 5 4 3 3 13 17 9 7 6 8 9 5 5 6 7 6 4 5 4 4
6 8 10 11 12 10 5 4 3 3 5 8 5 7 3 10 11 4 5 6 8 7 7 8 7 4 4 6 9 6 3 3 5 5 9 11 5 6 4 2 2 2 2 5
8 10 10 12 14 10 3 2 5 5 5 2 2 5 7 8 11 16 17 7 4 8 14 17 13 12 13 12 7 8 4 4 3 6 6 7 6 8 6 3 1 6 3 6
9 11 12 10 6 7 6 6 10 4 5 3 8 6 13 8 8 7 14 19 11 8 9 10 7 11 16 16 14 11 6 6 4 2 1 5 2 5 7 5 1 1 2 4
10 11 9 10 9 8 10 12 9 4 3 9 10 13 3 17 17 13 12 7 7 6 4 1 3 3 3 6 6 8 8 4 2 3 4 2 2 3 3 2 3 3 2 5
8 8 11 9 8 7 9 8 9 11 7 4 6 7 9 2 2 5 2 5 5 3 2 2 4 3 4 3 4 4 6 4 4 1 5 5 4 4 4 0 1 2 5 7
8 10 8 7 8 9 10 11 9 10 7 9 3 1 2 1 1 2 4 4 3 2 1 2 3 4 3 4 3 1 2 2 4 4 3 2 4 9 5 2 2 6 9 9
8 6 6 8 9 10 12 10 11 7 5 6 7 4 3 4 3 1 4 5 3 2 2 2 4 1 2 5 3 3 3 2 2 2 3 3 12 1 1 0 7 8 8 10
6 5 7 11 9 11 10 6 8 7 5 2 2 7 7 5 4 4 3 5 7 4 2 2 2 3 3 2 2 4 3 2 1 3 3 2 12 13 10 7 7 8 8 9
6 6 8 10 11 8 5 6 8 6 2 3 4 6 7 7 7 3 4 4 5 2 2 2 3 5 4 3 3 3 5 9 3 2 3 9 9 7 6 8 5 6 8 9
7 7 9 9 10 5 4 4 5 3 1 1 5 6 11 16 11 7 14 16 10 3 7 7 4 3 7 3 3 3 3 6 4 2 6 3 7 7 8 6 7 8 7 10
5 9 7 4 4 4 0 2 6 8 1 2 8 7 12 13 18 6 1 10 8 6 6 6 3 4 4 5 4 4 8 1 2 1 5 3 2 8 8 10 10 8 11 13
5 4 3 3 8 4 4 3 1 9 2 2 2 5 17 8 14 20 12 10 11 12 7 6 5 9 2 3 3 9 13 7 8 5 10 4 5 7 11 11 10 9 11 12
5 3 3 4 3 3 6 6 14 9 2 1 6 3 9 10 8 16 13 21 15 10 7 6 6 8 8 3 2 12 13 7 8 9 9 5 8 7 10 11 10 10 12 12
16 13 9 7 7 9 10 13 15 2 6 9 3 5 5 23 9 5 10 6 10 13 6 5 5 7 7 3 9 11 13 9 8 12 8 7 9 9 11 11 11 14 12 12
17 12 9 8 5 6 8 8 11 19 12 6 6 5 3 17 12 10 5 6 4 6 5 6 6 3 5 4 12 13 12 10 11 13 9 9 10 12 12 11 12 13 13 13
14 7 4 5 5 6 0 2 6 13 13 9 7 14 3 11 9 11 5 6 2 3 3 6 3 2 4 10 11 10 11 12 12 14 17 16 16 16 15 13 12 12 13 15
5 4 5 8 6 4 6 7 10 11 6 9 9 11 9 11 4 3 9 1 3 3 3 3 2 2 8 13 13 13 12 13 13 12 13 13 14 16 17 17 14 13 14 16
5 10 12 7 10 10 10 4 7 7 1 10 11 13 11 8 7 6 8 2 4 2 3 3 2 2 12 15 16 15 14 13 14 14 17 16 16 16 17 18 17 15 15 17
9 6 7 9 11 13 7 7 5 4 9 9 18 14 8 7 10 4 6 5 1 2 3 2 1 9 14 18 17 17 16 16 17 18 17 16 16 17 16 18 17 17 17 16
9 9 8 5 5 4 1 2 5 9 8 18 19 8 5 5 6 5 5 3 5 4 4 1 4 19 16 19 20 20 21 20 17 17 18 18 18 18 17 16 17 17 17 16
9 9 6 4 10 9 9 10 9 10 12 10 7 3 5 7 4 4 4 6 4 2 2 3 20 19 19 20 22 23 21 20 19 19 19 19 19 19 19 16 17 16 15 15
10 12 6 8 5 15 16 17 15 9 11 4 2 4 4 4 3 5 3 4 2 3 6 20 18 19 22 22 22 22 20 19 19 18 17 18 19 19 19 18 15 14 16 17
8 10 14 10 9 14 17 19 17 10 5 4 5 5 2 2 4 4 1 1 4 16 19 18 21 20 21 20 21 22 21 20 19 21 20 19 16 15 16 17 16 16 18 17
Wind_Direction
325 342 345 349 353 354 3 19 352 178 312 293 225 184 236 151 215 189 265 236 245 242 290 277 236 222 195 165 152 161 201 151 214 234 260 196 152 210 156 184 247 213 163 266
325 345 358 351 351 351 0 346 291 253 304 249 307 325 323 284 241 205 196 227 212 311 282 309 283 62 201 167 157 170 187 175 5 327 351 348 104 235 146 124 91 219 159 264
322 337 349 351 348 348 353 344 341 225 224 280 106 357 310 332 322 264 253 259 259 251 244 211 263 251 192 192 191 195 174 155 162 202 215 168 223 237 201 142 149 207 221 275
336 338 335 344 346 348 1 96 267 258 293 323 347 354 265 287 285 245 216 249 234 213 240 242 252 267 306 214 221 225 158 199 184 228 243 222 238 193 184 179 201 172 242 208
316 319 322 332 341 344 342 290 302 342 280 293 318 295 269 288 291 237 247 215 232 259 228 218 228 241 222 227 213 229 232 239 173 253 251 259 244 208 157 131 193 318 66 287
311 313 312 321 326 333 315 273 284 282 250 249 259 241 253 283 296 274 253 251 257 251 257 249 245 230 249 224 193 202 196 158 143 250 255 268 258 204 179 160 170 147 176 229
305 303 315 323 320 316 318 298 284 261 259 236 257 275 289 302 317 296 296 292 260 256 265 308 295 267 256 245 217 200 188 176 201 249 34 245 278 24 160 120 105 116 26 298
292 307 316 314 310 294 287 288 292 272 267 252 273 268 296 298 289 274 256 287 280 272 293 251 262 256 249 231 213 198 188 199 185 209 211 126 331 349 128 182 268 223 180 322
316 304 308 317 310 296 277 295 296 272 280 248 283 282 276 252 309 328 4 313 308 238 149 172 218 256 235 252 5 66 136 127 154 147 254 222 54 67 31 92 285 20 59 24
296 303 312 319 306 306 305 305 288 271 258 280 319 165 238 306 293 258 333 344 317 222 225 235 225 244 228 161 124 120 98 22 210 245 251 103 3 323 338 161 200 48 52 23
304 311 320 302 310 306 296 299 291 275 272 341 353 338 337 355 29 117 316 339 299 211 198 180 251 247 76 86 39 13 56 358 26 303 100 221 343 88 331 57 52 39 19 2
314 318 319 315 311 298 291 283 274 293 245 259 94 59 28 356 322 307 292 278 304 301 342 38 9 40 34 155 88 4 56 96 118 137 188 121 62 75 70 54 46 25 355 350
323 336 315 299 306 291 283 295 310 309 175 121 121 27 352 338 327 254 261 253 343 343 25 60 80 76 357 56 56 100 14 17 95 81 23 62 74 55 48 41 27 332 325 323
338 318 292 304 304 273 292 308 358 31 336 91 57 64 35 12 354 300 256 262 297 145 64 70 57 69 33 54 93 77 335 346 342 77 28 71 60 27 10 355 334 332 340 338
315 291 295 283 234 237 291 341 50 22 43 3 147 57 33 25 21 7 55 185 166 64 60 49 50 57 77 81 76 29 358 312 37 287 348 309 337 357 3 357 353 345 343 343
304 308 318 224 207 93 47 19 217 351 12 202 123 93 25 47 35 42 58 76 74 77 78 68 60 21 81 82 73 14 22 39 32 345 339 321 351 335 350 352 353 353 343 343
127 72 63 113 53 336 59 44 319 336 164 144 134 80 16 26 38 40 34 54 60 69 80 59 50 35 61 61 68 4 7 32 25 5 4 21 350 345 357 354 349 346 342 345
123 106 96 87 78 91 82 38 22 94 102 65 49 341 16 10 354 26 31 58 48 41 75 70 54 34 55 57 6 12 6 3 5 6 355 342 339 338 344 343 341 339 339 341
124 98 96 82 76 56 49 359 30 62 65 84 52 353 330 348 359 2 40 50 63 50 56 39 68 38 42 331 14 5 7 2 345 351 339 342 339 331 331 335 334 334 336 336
120 117 61 63 38 20 170 266 27 31 37 51 39 2 313 341 337 1 29 38 66 61 38 81 73 83 38 17 4 353 1 359 354 347 348 343 336 338 338 333 329 332 326 322
123 77 73 70 67 42 47 47 37 14 40 19 350 347 339 358 347 328 19 72 30 65 342 79 69 20 8 2 352 355 352 344 340 332 327 323 321 322 322 325 324 317 316 318
159 122 100 48 31 41 64 13 17 41 50 353 349 337 330 327 350 358 2 70 42 59 0 60 65 287 354 355 349 344 339 336 334 325 323 320 312 311 307 309 311 312 310 311
102 65 59 20 11 40 51 1 336 351 353 347 337 329 333 339 2 33 41 57 31 46 45 69 136 343 353 351 345 340 336 331 325 324 328 324 320 318 318 312 312 308 307 309
58 48 34 65 11 31 346 240 272 298 299 330 334 329 350 358 20 20 67 308 42 45 39 303 309 345 339 341 342 335 331 329 328 327 326 324 324 323 321 320 319 317 315 316
64 49 51 60 48 28 360 347 332 325 326 337 344 14 22 10 49 32 40 29 30 70 253 263 325 330 331 335 336 335 331 328 330 330 324 321 322 319 319 322 319 316 314 315
63 46 58 29 18 8 12 4 0 4 354 12 357 41 48 17 79 44 10 74 343 272 299 321 330 332 331 334 334 334 332 332 329 328 323 321 320 318 317 320 322 318 316 317
60 53 52 54 36 17 12 14 10 18 26 32 50 49 251 347 43 23 35 259 292 317 323 324 326 327 327 331 332 335 333 333 332 329 330 330 328 325 326 327 331 328 324 319